Starlink 3562

operational
NORAD ID: 51861 Int'l Des: 2022-022 Owner: SPXS Country: US Constellation: starlink
LEOCIRCULAR

Über Starlink 3562

Beschreibung wird geladen...

Live-Position

3D-Globus wird geladen...

Nächste Überflüge

Höhenverlauf

Altitude vs Time

uPlot chart will show altitude changes over time

Zweizeiliger Elementsatz

1 51861U 22022K 25308.98372070 -.00000967 00000-0 -42646-4 0 9993
2 51861 53.2180 208.9466 0001415 82.0110 278.1043 15.08838174204208
Epoch: 4. Nov. 2025 • Age: 9 hours

Aktueller Status

Höhe 551.0 km
Geschwindigkeit 7.59 km/s
Subsatellitenpunkt -33.36°S, 116.38°W
Startdatum 3. März 2022
Alter 3.6 years
Typ internet

Technische Details

Klassifizierung Payload
Masse 297.00 kg
Trockenmasse 275.00 kg
Gesamtmasse 297.00 kg
Länge 0.20 m
Durchmesser 2.80 m
Spannweite 9.00 m
Form Box + pan
Hersteller SPXS
Bus-Typ Starlink
Phasenstatus In Orbit
Besitzer/Staat SPXS/US

Große Konstellationen

Loading constellations...